SCP
0 0 0 0 0 0 0 0 0 0 0 0 0 0 0 0 0 0 0 0 0 0 0 0 0 0 0 0 0 0 0 0 0 0 0 0 0 0 0 0 0 0 0
0 0 0 0 0 0 0 0 0 0 0 0 0 0 0 0 0 0 0 0 0 0 0 0 0 0 0 0 0 0 0 0 0 0 0 0 0 0 0 0 0 0 0
0 0 0 0 0 0 0 0 0 0 0 0 0 0 0 0 0 0 0 0 0 0 0 0 0 0 0 0 0 0 0 0 0 0 0 0 0 0 0 0 0 0 0
-0 0 -0 0 0 0 0 0 0 0 0 0 0 0 0 0 0 0 0 0 0 0 0 0 0 0 0 0 0 0 0 0 0 0 0 0 0 0 0 0 0 0 0
0 -0 -0 0 -0 0 0 0 0 0 0 0 0 0 0 0 0 0 0 0 0 0 0 0 0 0 0 0 0 0 0 0 0 0 0 0 0 0 0 0 0 0 0
0 0 0 0 0 -0 0 0 0 0 0 0 0 0 0 0 0 0 0 0 0 0 0 0 0 0 0 0 0 0 0 0 0 0 0 0 0 0 0 0 0 0 0
0 0 0 0 0 0 0 0 0 0 0 0 0 0 0 0 0 0 0 0 0 0 0 0 0 0 0 0 0 0 0 0 0 0 0 0 0 0 0 0 0 0 0
0 0 0 0 0 0 0 0 0 0 0 0 0 0 0 0 0 0 0 0 0 0 0 0 0 0 0 0 0 0 0 0 0 0 0 0 0 0 0 0 0 0 0
0 0 0 0 0 0 0 0 0 0 0 0 0 0 0 0 0 0 0 0 0 0 0 0 0 0 0 0 0 0 0 0 0 0 0 0 0 0 0 0 0 0 0
0 0 0 0 0 0 0 0 0 0 0 0 0 0 0 0 0 0 0 0 0 0 0 0 0 0 0 0 0 0 0 0 0 0 0 0 0 0 0 0 0 0 0
0 0 0 0 0 0 0 0 0 0 0 0 0 0 0 0 0 0 0 0 0 0 0 0 0 0 0 0 0 0 0 0 0 0 0 0 0 0 0 0 0 0 0
0 0 0 0 0 0 0 0 0 0 0 0 0 0 0 0 0 0 0 0 0 0 0 0 0 0 0 0 0 0 0 0 0 0 0 0 0 0 0 0 0 0 0
0 0 0 -0 -0 -0 -0 -0 0 -0 -0 -0 0 0 0 0 0 0 0 0 0 0 0 0 0 0 0 0 0 0 0 0 0 0 0 0 0 0 0 0 0 0 0
0 0 0 -0 -0 -0 -0 -0 -0 -0 0 0 0 0 0 0 0 0 0 0 0 0 0 0 0 0 0 0 0 0 0 0 0 0 0 0 0 0 0 0 0 0 0
0 0 0 -0 -0 0 0 -0 0 0 -0 -0 -0 0 0 0 0 0 0 0 0 0 0 0 0 0 0 0 0 0 0 0 0 0 0 0 0 0 0 0 0 0 0
-0 -0 -0 -0 -0 -0 -0 -0 -0 -0 -0 -0 -0 -0 -0 -0 -0 0 0 0 0 0 0 0 0 0 0 0 0 0 0 0 0 0 0 0 0 0 0 0 0 0 0
0 0 0 0 -0 -0 -0 -0 -0 -0 -0 -0 -0 -0 -0 -0 -0 -0 0 0 0 0 0 0 0 0 0 0 0 0 0 0 0 0 0 0 0 0 0 0 0 0 0
0 0 0 -0 0 0 0 0 0 -0 -0 -0 -0 0 -0 -0 -0 -0 0 0 0 0 0 0 0 0 0 0 0 0 0 0 0 0 0 0 0 0 0 0 0 0 0
0 0 0 0 0 0 0 -0 -0 0 0 -0 -0 0 0 -0 -0 -0 -0 0 0 0 0 0 0 0 0 0 0 0 0 0 0 0 0 0 0 0 0 0 0 0 0
0 0 0 0 0 0 -0 0 0 0 0 0 0 0 0 0 0 0 0 0 0 0 0 0 0 0 0 0 0 0 0 0 0 0 0 0 0 0 0 0 0 0 0
0 0 0 0 0 0 0 0 -0 -0 0 0 0 0 0 0 0 0 0 0 0 0 0 0 0 0 0 0 0 0 0 0 0 0 0 0 0 0 0 0 0 0 0
0 0 0 0 0 0 0 0 0 0 0 0 0 0 0 0 0 0 0 0 0 0 0 0 0 0 0 0 0 0 0 0 0 0 0 0 0 0 0 0 0 0 0
0 0 0 0 0 0 0 0 0 0 0 0 0 0 0 0 0 0 0 0 0 0 0 0 0 0 0 0 0 0 0 0 0 0 0 0 0 0 0 0 0 0 0
0 0 0 0 0 0 0 0 0 0 0 0 0 0 0 0 0 0 0 0 0 0 0 0 0 0 0 0 0 0 0 0 0 0 0 0 0 0 0 0 0 0 0
0 0 0 0 0 0 0 0 0 0 0 0 0 0 0 0 0 0 0 0 0 0 0 0 0 0 0 0 0 0 0 0 0 0 0 0 0 0 0 0 0 0 0
0 0 0 0 0 0 0 0 0 0 0 0 0 0 0 0 0 0 0 0 0 0 0 0 0 0 0 0 0 0 0 0 0 0 0 0 0 0 0 0 0 0 0
Wind_Speed_500mb
25 25 28 32 37 44 60 75 82 86 91 94 94 97 90 87 89 95 94 85 89 93 94 96 97 92 84 79 80 90 88 85 84 71 65 61 51 56 49 49 48 41 39
37 40 41 39 42 47 53 56 62 75 80 86 87 91 93 89 91 90 96 88 84 94 92 94 96 93 83 78 94 96 94 88 83 75 73 69 63 59 51 57 47 39 42
36 41 42 43 46 49 50 51 56 63 68 74 83 86 90 91 88 87 90 90 85 86 87 91 95 94 89 89 91 92 101 87 76 77 79 70 67 60 64 58 52 45 43
46 46 47 49 50 52 57 57 55 54 60 70 75 84 84 87 89 94 84 82 83 85 77 83 90 96 99 85 92 90 107 87 75 81 80 80 59 58 58 62 58 45 41
48 53 52 57 58 55 59 61 61 58 59 59 69 74 81 86 87 89 86 78 80 82 85 95 89 95 92 83 104 100 98 89 84 85 87 65 66 62 66 66 56 47 42
52 53 54 62 59 62 60 66 68 67 64 65 66 65 74 82 86 85 88 85 84 91 86 98 91 94 95 87 105 80 95 86 97 79 86 75 64 60 57 57 60 53 47
51 52 53 55 63 62 63 67 68 72 71 66 67 68 70 78 83 83 86 95 85 82 81 83 95 98 97 107 88 82 89 92 81 72 74 72 63 57 54 64 57 52 53
54 54 54 58 59 64 65 70 72 67 69 72 63 65 72 77 76 78 78 82 92 85 76 85 93 86 94 102 92 72 84 79 65 54 62 54 48 45 50 55 52 56 51
51 53 55 59 63 64 66 67 73 77 70 69 71 67 68 76 73 74 78 73 83 87 83 81 80 78 59 69 71 91 80 75 63 58 60 49 49 49 53 58 61 58 53
55 53 54 58 63 65 66 68 73 75 79 73 72 72 74 76 72 72 65 72 81 87 85 81 86 71 66 67 80 92 78 69 61 62 57 54 53 55 59 58 55 58 53
56 60 60 56 59 63 68 67 71 74 76 78 74 72 71 74 71 70 66 71 83 86 87 88 95 66 73 72 79 82 67 51 57 55 62 59 61 62 64 61 54 47 48
58 61 66 67 62 62 67 70 71 73 76 78 78 75 73 63 62 60 60 71 76 82 84 75 76 73 63 76 60 69 64 53 53 65 64 71 70 72 68 60 53 51 49
61 61 65 68 69 67 69 72 73 72 76 79 79 78 75 66 52 50 58 63 72 77 81 71 79 70 62 65 68 67 58 57 63 68 71 74 73 69 64 59 56 52 46
64 66 67 71 74 74 73 70 74 75 74 74 75 77 77 70 56 51 51 56 67 74 77 81 76 75 67 69 75 67 61 66 69 69 78 77 73 69 64 61 58 52 46
70 70 71 72 74 79 79 77 76 73 71 68 66 69 74 76 61 55 57 55 67 69 71 71 70 79 82 85 82 78 77 77 78 85 83 81 76 72 69 62 56 54 47
78 78 78 79 79 78 84 91 81 80 75 73 69 55 62 68 62 57 60 56 59 71 72 74 79 88 90 86 90 85 82 79 84 86 82 78 77 75 70 66 57 50 43
80 83 85 83 82 84 86 87 97 100 88 78 76 70 58 60 57 53 53 52 53 64 78 82 88 94 92 90 92 88 88 88 87 84 83 82 78 74 72 67 61 53 45
76 81 86 88 88 89 86 88 92 94 95 101 84 83 68 61 58 49 49 52 56 67 76 83 85 87 89 89 89 95 97 96 94 91 89 85 79 76 73 67 58 48 41
75 79 82 88 89 87 96 98 91 88 85 87 91 86 80 67 56 54 48 57 69 74 79 86 85 90 94 94 95 101 102 100 100 98 93 85 83 78 73 64 55 47 41
76 79 83 88 91 92 89 92 99 99 97 90 81 79 80 78 70 60 61 61 69 83 84 85 91 93 98 101 102 102 104 104 102 96 92 88 82 75 68 62 56 48 39
83 86 86 89 92 90 97 104 103 100 100 101 94 80 72 75 78 71 65 74 64 82 91 94 93 97 99 99 103 105 110 108 104 101 98 90 79 76 67 57 49 44 37
82 87 90 94 98 100 100 102 104 104 103 102 103 86 74 73 81 79 72 71 77 70 88 97 98 97 99 102 105 108 110 112 108 108 99 86 84 78 69 60 53 43 35
82 86 90 94 98 103 104 102 101 101 103 100 97 90 77 78 80 85 76 72 71 78 80 98 100 100 101 103 106 107 115 118 113 110 101 91 88 79 68 59 49 38 34
88 92 95 95 95 99 100 101 97 96 97 95 90 85 76 74 81 86 80 70 69 80 85 90 100 102 104 106 106 107 109 110 102 100 87 90 88 76 63 52 38 38 34
89 93 94 96 95 96 97 96 97 90 92 89 86 82 74 71 80 83 76 70 72 75 85 87 95 100 99 101 102 99 99 98 98 89 90 90 81 69 54 40 39 39 33
87 87 89 90 91 90 90 91 92 90 88 87 83 74 71 66 74 78 72 68 67 69 83 87 92 94 91 92 87 88 94 95 93 89 92 82 70 58 48 43 43 33 34
Wind_Direction_500mb
321 319 314 310 304 293 282 279 279 280 279 278 279 278 278 277 274 273 270 266 265 269 266 264 263 261 256 257 270 262 254 247 247 245 250 252 239 245 240 239 241 249 253
315 313 311 307 303 303 306 299 282 276 278 278 278 279 278 277 276 275 274 271 271 267 266 265 262 260 253 256 257 260 253 249 247 242 243 236 248 238 238 240 230 239 247
341 327 326 317 309 303 301 304 307 290 274 274 277 277 277 276 276 275 274 273 270 270 269 266 263 257 258 257 255 253 248 247 245 242 245 241 235 237 224 228 227 227 236
355 359 350 339 328 316 306 301 301 301 294 277 271 273 275 277 275 272 271 272 276 272 271 270 266 258 258 260 259 251 245 242 237 240 241 238 229 231 224 224 220 224 225
336 337 345 347 338 328 318 306 298 294 292 290 284 275 271 270 271 271 266 267 269 272 277 265 265 260 259 261 253 249 242 236 236 235 234 222 219 227 225 218 215 217 218
335 334 329 325 329 334 330 318 306 298 292 288 285 281 279 270 268 268 265 261 268 269 266 267 268 264 264 262 250 250 245 233 234 230 224 219 227 222 224 221 213 209 207
333 337 336 328 323 326 327 329 318 304 296 292 288 285 277 275 269 268 267 265 266 260 264 267 267 270 262 263 249 241 249 244 237 230 224 221 220 234 228 212 217 220 222
329 335 334 331 331 329 327 325 327 315 303 297 294 287 282 274 273 267 264 268 268 264 265 266 268 274 259 266 244 240 239 244 230 221 225 228 231 232 228 224 222 213 212
328 331 332 333 332 333 329 326 326 325 318 307 299 291 281 276 270 267 267 264 264 263 261 268 268 267 259 258 256 259 236 222 214 209 208 216 219 212 217 207 203 204 207
331 334 332 330 328 330 331 329 328 326 325 315 304 296 287 276 269 263 261 261 260 259 259 259 265 256 261 263 259 240 210 198 207 206 218 214 206 207 205 207 216 208 210
333 334 335 334 331 329 326 331 329 329 323 322 314 304 291 280 271 266 253 256 255 258 253 258 254 259 262 254 257 237 214 226 212 223 219 211 202 201 201 200 200 210 218
330 330 329 330 332 333 331 330 330 331 328 325 323 314 305 292 277 270 261 254 259 256 261 255 255 261 258 260 229 219 212 215 226 213 210 203 199 196 196 197 202 211 214
326 326 325 326 328 331 331 330 330 329 331 330 326 321 314 307 292 279 268 263 259 261 255 259 260 254 251 231 217 212 224 222 217 207 206 199 195 195 196 199 204 206 209
322 324 326 325 326 327 328 328 328 330 328 327 324 321 318 311 297 287 292 277 265 259 252 254 252 241 227 217 214 215 222 218 218 213 199 196 194 193 197 204 203 201 203
320 322 323 323 323 322 322 324 325 324 325 321 319 316 313 309 303 290 291 293 276 263 254 243 229 213 207 205 207 210 211 211 208 201 197 195 194 196 199 201 201 201 202
317 318 320 320 320 319 318 317 318 320 321 318 315 310 307 303 304 289 288 293 286 263 249 234 223 213 210 213 213 209 209 208 204 201 198 199 199 200 201 197 199 197 201
313 313 313 315 314 315 313 313 314 313 316 316 315 314 311 307 304 298 290 286 280 270 251 239 224 217 218 217 217 217 213 208 204 201 203 201 202 203 201 198 194 195 196
310 310 311 311 311 310 307 306 308 310 311 311 313 312 309 304 302 296 291 287 270 263 251 241 232 227 224 221 225 221 213 206 202 203 203 204 205 204 199 196 195 196 200
315 313 312 310 310 308 305 304 304 303 303 302 305 305 308 307 303 292 281 274 270 260 250 243 240 238 233 230 227 223 217 210 207 204 203 204 204 202 198 194 193 194 202
317 316 315 312 310 309 307 302 301 300 299 297 296 297 303 303 301 293 281 269 268 263 256 249 245 242 237 232 228 224 218 212 206 204 205 205 201 199 197 193 195 197 200
318 315 314 311 310 309 303 302 302 300 296 293 289 289 291 288 290 288 282 277 267 264 256 253 246 242 239 234 229 226 221 213 208 205 205 200 197 195 193 195 196 195 200
318 317 315 312 309 306 304 302 300 298 295 292 290 291 290 284 282 281 278 275 273 270 264 253 250 245 242 236 234 230 222 213 207 205 200 194 196 193 191 192 195 196 200
316 314 312 311 309 307 304 303 300 298 295 292 286 285 279 280 275 279 280 276 273 268 264 256 249 247 244 241 237 233 224 216 208 203 194 192 191 190 191 192 192 196 204
318 316 313 310 308 305 303 302 300 297 295 292 286 280 276 276 269 276 279 277 272 269 261 256 252 251 248 243 236 231 225 215 204 198 191 193 188 187 187 186 191 199 205
318 315 312 308 306 302 301 298 296 293 293 292 287 282 273 269 269 273 276 275 270 267 260 255 252 249 249 247 240 231 221 207 201 190 192 190 185 179 178 185 203 201 204
316 314 309 306 303 300 293 291 292 292 290 290 290 285 273 266 268 273 274 273 271 266 260 254 250 247 244 241 238 230 213 198 188 186 185 182 175 171 177 194 197 195 210
Wind_Speed_850mb
25 25 28 32 37 44 60 75 82 86 91 94 94 97 90 87 89 95 94 85 89 93 94 96 97 92 84 79 80 90 88 85 84 71 65 61 51 56 49 49 48 41 39
37 40 41 39 42 47 53 56 62 75 80 86 87 91 93 89 91 90 96 88 84 94 92 94 96 93 83 78 94 96 94 88 83 75 73 69 63 59 51 57 47 39 42
36 41 42 43 46 49 50 51 56 63 68 74 83 86 90 91 88 87 90 90 85 86 87 91 95 94 89 89 91 92 101 87 76 77 79 70 67 60 64 58 52 45 43
46 46 47 49 50 52 57 57 55 54 60 70 75 84 84 87 89 94 84 82 83 85 77 83 90 96 99 85 92 90 107 87 75 81 80 80 59 58 58 62 58 45 41
48 53 52 57 58 55 59 61 61 58 59 59 69 74 81 86 87 89 86 78 80 82 85 95 89 95 92 83 104 100 98 89 84 85 87 65 66 62 66 66 56 47 42
52 53 54 62 59 62 60 66 68 67 64 65 66 65 74 82 86 85 88 85 84 91 86 98 91 94 95 87 105 80 95 86 97 79 86 75 64 60 57 57 60 53 47
51 52 53 55 63 62 63 67 68 72 71 66 67 68 70 78 83 83 86 95 85 82 81 83 95 98 97 107 88 82 89 92 81 72 74 72 63 57 54 64 57 52 53
54 54 54 58 59 64 65 70 72 67 69 72 63 65 72 77 76 78 78 82 92 85 76 85 93 86 94 102 92 72 84 79 65 54 62 54 48 45 50 55 52 56 51
51 53 55 59 63 64 66 67 73 77 70 69 71 67 68 76 73 74 78 73 83 87 83 81 80 78 59 69 71 91 80 75 63 58 60 49 49 49 53 58 61 58 53
55 53 54 58 63 65 66 68 73 75 79 73 72 72 74 76 72 72 65 72 81 87 85 81 86 71 66 67 80 92 78 69 61 62 57 54 53 55 59 58 55 58 53
56 60 60 56 59 63 68 67 71 74 76 78 74 72 71 74 71 70 66 71 83 86 87 88 95 66 73 72 79 82 67 51 57 55 62 59 61 62 64 61 54 47 48
58 61 66 67 62 62 67 70 71 73 76 78 78 75 73 63 62 60 60 71 76 82 84 75 76 73 63 76 60 69 64 53 53 65 64 71 70 72 68 60 53 51 49
61 61 65 68 69 67 69 72 73 72 76 79 79 78 75 66 52 50 58 63 72 77 81 71 79 70 62 65 68 67 58 57 63 68 71 74 73 69 64 59 56 52 46
64 66 67 71 74 74 73 70 74 75 74 74 75 77 77 70 56 51 51 56 67 74 77 81 76 75 67 69 75 67 61 66 69 69 78 77 73 69 64 61 58 52 46
70 70 71 72 74 79 79 77 76 73 71 68 66 69 74 76 61 55 57 55 67 69 71 71 70 79 82 85 82 78 77 77 78 85 83 81 76 72 69 62 56 54 47
78 78 78 79 79 78 84 91 81 80 75 73 69 55 62 68 62 57 60 56 59 71 72 74 79 88 90 86 90 85 82 79 84 86 82 78 77 75 70 66 57 50 43
80 83 85 83 82 84 86 87 97 100 88 78 76 70 58 60 57 53 53 52 53 64 78 82 88 94 92 90 92 88 88 88 87 84 83 82 78 74 72 67 61 53 45
76 81 86 88 88 89 86 88 92 94 95 101 84 83 68 61 58 49 49 52 56 67 76 83 85 87 89 89 89 95 97 96 94 91 89 85 79 76 73 67 58 48 41
75 79 82 88 89 87 96 98 91 88 85 87 91 86 80 67 56 54 48 57 69 74 79 86 85 90 94 94 95 101 102 100 100 98 93 85 83 78 73 64 55 47 41
76 79 83 88 91 92 89 92 99 99 97 90 81 79 80 78 70 60 61 61 69 83 84 85 91 93 98 101 102 102 104 104 102 96 92 88 82 75 68 62 56 48 39
83 86 86 89 92 90 97 104 103 100 100 101 94 80 72 75 78 71 65 74 64 82 91 94 93 97 99 99 103 105 110 108 104 101 98 90 79 76 67 57 49 44 37
82 87 90 94 98 100 100 102 104 104 103 102 103 86 74 73 81 79 72 71 77 70 88 97 98 97 99 102 105 108 110 112 108 108 99 86 84 78 69 60 53 43 35
82 86 90 94 98 103 104 102 101 101 103 100 97 90 77 78 80 85 76 72 71 78 80 98 100 100 101 103 106 107 115 118 113 110 101 91 88 79 68 59 49 38 34
88 92 95 95 95 99 100 101 97 96 97 95 90 85 76 74 81 86 80 70 69 80 85 90 100 102 104 106 106 107 109 110 102 100 87 90 88 76 63 52 38 38 34
89 93 94 96 95 96 97 96 97 90 92 89 86 82 74 71 80 83 76 70 72 75 85 87 95 100 99 101 102 99 99 98 98 89 90 90 81 69 54 40 39 39 33
87 87 89 90 91 90 90 91 92 90 88 87 83 74 71 66 74 78 72 68 67 69 83 87 92 94 91 92 87 88 94 95 93 89 92 82 70 58 48 43 43 33 34
Wind_Direction_850mb
321 319 314 310 304 293 282 279 279 280 279 278 279 278 278 277 274 273 270 266 265 269 266 264 263 261 256 257 270 262 254 247 247 245 250 252 239 245 240 239 241 249 253
315 313 311 307 303 303 306 299 282 276 278 278 278 279 278 277 276 275 274 271 271 267 266 265 262 260 253 256 257 260 253 249 247 242 243 236 248 238 238 240 230 239 247
341 327 326 317 309 303 301 304 307 290 274 274 277 277 277 276 276 275 274 273 270 270 269 266 263 257 258 257 255 253 248 247 245 242 245 241 235 237 224 228 227 227 236
355 359 350 339 328 316 306 301 301 301 294 277 271 273 275 277 275 272 271 272 276 272 271 270 266 258 258 260 259 251 245 242 237 240 241 238 229 231 224 224 220 224 225
336 337 345 347 338 328 318 306 298 294 292 290 284 275 271 270 271 271 266 267 269 272 277 265 265 260 259 261 253 249 242 236 236 235 234 222 219 227 225 218 215 217 218
335 334 329 325 329 334 330 318 306 298 292 288 285 281 279 270 268 268 265 261 268 269 266 267 268 264 264 262 250 250 245 233 234 230 224 219 227 222 224 221 213 209 207
333 337 336 328 323 326 327 329 318 304 296 292 288 285 277 275 269 268 267 265 266 260 264 267 267 270 262 263 249 241 249 244 237 230 224 221 220 234 228 212 217 220 222
329 335 334 331 331 329 327 325 327 315 303 297 294 287 282 274 273 267 264 268 268 264 265 266 268 274 259 266 244 240 239 244 230 221 225 228 231 232 228 224 222 213 212
328 331 332 333 332 333 329 326 326 325 318 307 299 291 281 276 270 267 267 264 264 263 261 268 268 267 259 258 256 259 236 222 214 209 208 216 219 212 217 207 203 204 207
331 334 332 330 328 330 331 329 328 326 325 315 304 296 287 276 269 263 261 261 260 259 259 259 265 256 261 263 259 240 210 198 207 206 218 214 206 207 205 207 216 208 210
333 334 335 334 331 329 326 331 329 329 323 322 314 304 291 280 271 266 253 256 255 258 253 258 254 259 262 254 257 237 214 226 212 223 219 211 202 201 201 200 200 210 218
330 330 329 330 332 333 331 330 330 331 328 325 323 314 305 292 277 270 261 254 259 256 261 255 255 261 258 260 229 219 212 215 226 213 210 203 199 196 196 197 202 211 214
326 326 325 326 328 331 331 330 330 329 331 330 326 321 314 307 292 279 268 263 259 261 255 259 260 254 251 231 217 212 224 222 217 207 206 199 195 195 196 199 204 206 209
322 324 326 325 326 327 328 328 328 330 328 327 324 321 318 311 297 287 292 277 265 259 252 254 252 241 227 217 214 215 222 218 218 213 199 196 194 193 197 204 203 201 203
320 322 323 323 323 322 322 324 325 324 325 321 319 316 313 309 303 290 291 293 276 263 254 243 229 213 207 205 207 210 211 211 208 201 197 195 194 196 199 201 201 201 202
317 318 320 320 320 319 318 317 318 320 321 318 315 310 307 303 304 289 288 293 286 263 249 234 223 213 210 213 213 209 209 208 204 201 198 199 199 200 201 197 199 197 201
313 313 313 315 314 315 313 313 314 313 316 316 315 314 311 307 304 298 290 286 280 270 251 239 224 217 218 217 217 217 213 208 204 201 203 201 202 203 201 198 194 195 196
310 310 311 311 311 310 307 306 308 310 311 311 313 312 309 304 302 296 291 287 270 263 251 241 232 227 224 221 225 221 213 206 202 203 203 204 205 204 199 196 195 196 200
315 313 312 310 310 308 305 304 304 303 303 302 305 305 308 307 303 292 281 274 270 260 250 243 240 238 233 230 227 223 217 210 207 204 203 204 204 202 198 194 193 194 202
317 316 315 312 310 309 307 302 301 300 299 297 296 297 303 303 301 293 281 269 268 263 256 249 245 242 237 232 228 224 218 212 206 204 205 205 201 199 197 193 195 197 200
318 315 314 311 310 309 303 302 302 300 296 293 289 289 291 288 290 288 282 277 267 264 256 253 246 242 239 234 229 226 221 213 208 205 205 200 197 195 193 195 196 195 200
318 317 315 312 309 306 304 302 300 298 295 292 290 291 290 284 282 281 278 275 273 270 264 253 250 245 242 236 234 230 222 213 207 205 200 194 196 193 191 192 195 196 200
316 314 312 311 309 307 304 303 300 298 295 292 286 285 279 280 275 279 280 276 273 268 264 256 249 247 244 241 237 233 224 216 208 203 194 192 191 190 191 192 192 196 204
318 316 313 310 308 305 303 302 300 297 295 292 286 280 276 276 269 276 279 277 272 269 261 256 252 251 248 243 236 231 225 215 204 198 191 193 188 187 187 186 191 199 205
318 315 312 308 306 302 301 298 296 293 293 292 287 282 273 269 269 273 276 275 270 267 260 255 252 249 249 247 240 231 221 207 201 190 192 190 185 179 178 185 203 201 204
316 314 309 306 303 300 293 291 292 292 290 290 290 285 273 266 268 273 274 273 271 266 260 254 250 247 244 241 238 230 213 198 188 186 185 182 175 171 177 194 197 195 210